Miscellaneous Local Product
Issued by NWS Hastings, NE

Home | Current Version | Previous Version | Graphics & Text | Print | Product List | Glossary On
Versions: 1 2 3 4 5 6 7 8 9 10 11 12 13 14 15 16 17 18 19 20 21 22 23 24 25 26 27 28 29 30 31 32 33 34 35 36 37 38 39 40 41 42 43 44 45 46 47 48 49 50
621
AXUS43 KGID 291902
MISGRI

GID CWA HOURLY WEATHER ROUNDUP
NATIONAL WEATHER SERVICE HASTINGS NE
200 PM CDT FRI APR 29 2016

NOTE: "FAIR" INDICATES FEW OR NO CLOUDS BELOW 12,000 FEET WITH NO
SIGNIFICANT WEATHER AND/OR OBSTRUCTIONS TO VISIBILITY.

...SOUTH CENTRAL NEBRASKA...

CITY           SKY/WX    TMP DP  RH WIND       PRES   REMARKS
GRAND ISLAND   CLOUDY    45  39  79 NE13      30.04F
HASTINGS       CLOUDY    44  38  79 NE16      30.00F
KEARNEY        CLOUDY    45  37  76 NE14      30.02F
ORD            CLOUDY    43  39  86 E10       30.05F
YORK           CLOUDY    46  39  76 NE16      30.02F
AURORA         CLOUDY    46  41  83 NE15      30.02F
LEXINGTON      CLOUDY    44  38  80 NE10      30.02F
HOLDREGE       CLOUDY    43  38  83 NE14      30.00F
HEBRON         CLOUDY    46  40  79 NE14G21   30.01S

...NEBRASKA PANHANDLE...

CITY           SKY/WX    TMP DP  RH WIND       PRES   REMARKS
CHADRON        CLOUDY    43  36  76 NE12      30.05S
ALLIANCE       CLOUDY    42  35  76 E14       30.00F
SCOTTSBLUFF    CLOUDY    46  35  65 E10       29.99F
SIDNEY         LGT RAIN  40  35  83 E14       29.97F WCI  32

...WESTERN AND NORTH CENTRAL NEBRASKA...

CITY           SKY/WX    TMP DP  RH WIND       PRES   REMARKS
VALENTINE      CLOUDY    40  37  89 E10       30.08S FOG     WCI  33
AINSWORTH      CLOUDY    40  38  96 E12       30.08F FOG     WCI  32
ONEILL         CLOUDY    42  40  93 E7        30.10S FOG
BROKEN BOW     LGT RAIN  42  40  92 NE8       30.04F FOG
IMPERIAL       LGT RAIN  41  37  86 E18       29.97F
NORTH PLATTE   CLOUDY    43  36  76 NE10      30.01F
MCCOOK         CLOUDY    42  38  85 E18       29.97F

...EASTERN NEBRASKA...

CITY           SKY/WX    TMP DP  RH WIND       PRES   REMARKS
NORFOLK        CLOUDY    44  39  82 E8        30.08R
SO SIOUX CITY  CLOUDY    48  40  73 E8        30.11S
TEKAMAH        CLOUDY    47  41  80 E8        30.09R
COLUMBUS       CLOUDY    45  34  65 NE10      30.08F
ALBION         CLOUDY    44  39  82 NE9       30.07S
OMAHA EPPLEY   CLOUDY    49  41  74 E10       30.09R
OFFUTT AFB     CLOUDY    49  42  77 NE8       30.06S
MILLARD        CLOUDY    48  40  72 E7        30.07S
LINCOLN        CLOUDY    48  40  73 NE14      30.06F
NEBRASKA CITY  CLOUDY    49  42  78 E13       30.04S
BEATRICE       CLOUDY    47  40  78 NE14      30.02F
FALLS CITY     CLOUDY    51  44  77 E12       30.01F

...NORTHERN KANSAS...

CITY           SKY/WX    TMP DP  RH WIND       PRES   REMARKS
GOODLAND       LGT RAIN  38  36  92 NE16G24   29.90F WCI  29
HILL CITY      LGT RAIN  43  40  89 NE13      29.99F FOG
NORTON         DRIZZLE   43  36  75 NE14      29.97
PHILLIPSBURG   RAIN      45  39  81 CALM      30.00S
SMITH CENTER   RAIN      41  39  93 NE12      30.01R
BELOIT         CLOUDY    43  39  87 NE9       30.00R
HAYS           CLOUDY    43  36  75 NE16      29.97F
RUSSELL        HVY RAIN  43  42  97 NE10      29.97R FOG
CONCORDIA      CLOUDY    46  40  79 NE14      29.99S
SALINA         RAIN      46  44  93 NE17      29.93F FOG
TOPEKA         CLOUDY    55  45  68 NE14      29.95F



USA.gov is the U.S. government's official web portal to all federal, state and local government web resources and services.